Regional Weather Roundup
Issued by NWS Sioux Falls, SD

Home | Current Version | Previous Version | Text Only | Print | Product List | Glossary On
Versions: 1 2 3 4 5 6 7 8 9 10 11 12 13 14 15 16 17 18 19 20 21 22 23 24 25 26 27 28 29 30 31 32 33 34 35 36 37 38 39 40 41 42 43 44 45 46 47 48 49 50
000
ASUS43 KFSD 170210
RWRFSD

WEATHER ROUNDUP FOR SE SOUTH DAKOTA/SW MINNESOTA/NW IOWA
NATIONAL WEATHER SERVICE SIOUX FALLS SD
900 PM CDT TUE SEP 16 2014

NOTE: "FAIR" INDICATES FEW OR NO CLOUDS BELOW 12,000 FEET WITH NO
SIGNIFICANT WEATHER AND OR OBSTRUCTIONS TO VISIBILITY.


SDZ038>040-050-052>070-170300-
SOUTHEAST SOUTH DAKOTA

CITY           SKY/WX    TMP DP  RH WIND       PRES   REMARKS
CHAMBERLAIN    CLEAR     61  57  85 SE6       29.89S
HURON          PTCLDY    63  55  75 SE6       29.91R
MADISON        MOCLDY    59  54  82 S7        29.96S
MITCHELL       PTCLDY    63  55  75 S10       29.93R
SIOUX FALLS    CLOUDY    63  49  60 S14       29.97S
WINNER         FAIR      69  56  62 CALM      29.91R
YANKTON        CLEAR     61  52  72 SE8       29.97R
$$

MNZ071-072-080-081-089-090-097-098-170300-
SOUTHWEST MINNESOTA

CITY           SKY/WX    TMP DP  RH WIND       PRES   REMARKS
FAIRMONT       MOCLDY    54  43  66 S8        30.02S
JACKSON        CLOUDY    59  48  67 SE3       30.03R
LUVERNE        MOCLDY    55  48  76 S5        29.99F
MARSHALL       CLOUDY    63  48  59 S7        29.98S
MONTEVIDEO     CLOUDY    63  50  63 S3        29.99S
PIPESTONE      MOCLDY    57  48  72 S7        29.99R
REDWOOD FALLS  CLOUDY    62  51  67 S5        30.00R
TRACY          CLOUDY    61  52  72 CALM      30.00S
WINDOM         CLOUDY    59  48  67 SE6       30.01S
WORTHINGTON    CLOUDY    59  48  67 S9        30.02R
$$

IAZ001>003-012>014-020>022-031-032-NEZ013-014-SDZ071-170300-
NORTHWEST IOWA

CITY           SKY/WX    TMP DP  RH WIND       PRES   REMARKS
CHEROKEE       CLEAR     54  50  87 S3        30.02S
DENISON        CLEAR     54  52  94 SE5       30.02R
ESTHERVILLE    CLOUDY    56  50  80 S5        30.02
LE MARS          N/A     55  50  82 S3        30.01S
ORANGE CITY    CLEAR     61  50  67 S6        30.01S
SHELDON        CLOUDY    54  50  87 S6        30.00S
SIOUX CITY     PTCLDY    57  50  77 E7        30.01F
SPENCER        CLEAR     53  48  83 S6        30.02S
STORM LAKE     CLEAR     54  52  94 S7        30.03S
$$

ABBREVIATIONS USED IN REMARKS
   TC - TEMPERATURE IN CELSIUS
  WCI - WIND CHILL INDEX
   HX - HEAT INDEX
  VSB - VISIBILITY




USA.gov is the U.S. government's official web portal to all federal, state and local government web resources and services.